EWG72D EDDH-LOWS

Flight info

Callsign EWG72D
Flight time N/A
Altitude 37000
Route AMLUH2G/33 AMLUH M852 DENIX DCT ZUCKA DCT SODRO T703 ARMUT/N0426F310 T703 ARBAX/N0416F300 T108 OSTES/N0422F310 T700 BADIT BADIT2R
Aircraft A319/M-SDE3FGHIRWY/LB1

Departure

Time 2026-04-23 17:55
Airport Hamburg Helmut Schmidt Airport (EDDH)

Arrival

Time N/A
Airport Salzburg Airport (LOWS)
Time Latitude Longitude Altitude Speed Heading
2026-04-23 17:27 53.63168 10.00367 49 ft 0 kts 86°
2026-04-23 17:47 53.63167 10.00351 48 ft 4 kts 86°
2026-04-23 17:47 53.63171 10.00265 48 ft 4 kts 133°
2026-04-23 17:48 53.63185 10.00251 48 ft 0 kts 176°
2026-04-23 17:50 53.63172 10.00252 48 ft 5 kts 175°
2026-04-23 17:51 53.63125 10.00258 48 ft 9 kts 175°
2026-04-23 17:51 53.63054 10.00246 45 ft 12 kts 204°
2026-04-23 17:51 53.62918 10.00101 47 ft 11 kts 212°
2026-04-23 17:52 53.62870 10.00037 47 ft 10 kts 232°
2026-04-23 17:52 53.62843 9.99953 48 ft 0 kts 242°
2026-04-23 17:53 53.62812 9.99814 45 ft 12 kts 278°
2026-04-23 17:53 53.62850 9.99763 45 ft 0 kts 331°
2026-04-23 17:54 53.62995 9.99633 44 ft 55 kts 332°
2026-04-23 17:55 53.64254 9.98536 64 ft 162 kts 334°
2026-04-23 17:55 53.65288 9.97646 745 ft 161 kts 329°
2026-04-23 17:55 53.66287 9.96791 1468 ft 164 kts 329°
2026-04-23 17:56 53.67370 9.95856 1920 ft 186 kts 329°
2026-04-23 17:56 53.70079 9.94649 3406 ft 213 kts 358°
2026-04-23 17:56 53.71546 9.94687 4420 ft 214 kts
2026-04-23 17:57 53.72967 9.95599 5331 ft 225 kts 40°
2026-04-23 17:57 53.73742 9.97911 6263 ft 233 kts 73°
2026-04-23 17:57 53.74045 10.03355 8128 ft 243 kts 101°
2026-04-23 17:58 53.73410 10.06142 8714 ft 269 kts 119°
2026-04-23 17:58 53.72412 10.08980 9232 ft 291 kts 119°
2026-04-23 17:58 53.71376 10.12003 10019 ft 301 kts 117°
2026-04-23 17:58 53.70308 10.15119 10652 ft 318 kts 121°
2026-04-23 17:59 53.68854 10.18126 11072 ft 343 kts 134°
2026-04-23 17:59 53.66925 10.20599 11762 ft 355 kts 148°
2026-04-23 17:59 53.64649 10.22295 12516 ft 363 kts 162°
2026-04-23 17:59 53.62191 10.23421 13321 ft 368 kts 164°
2026-04-23 18:00 53.59713 10.24546 14155 ft 370 kts 164°
2026-04-23 18:00 53.57213 10.25685 14939 ft 373 kts 164°
2026-04-23 18:00 53.54702 10.26836 15706 ft 376 kts 163°
2026-04-23 18:00 53.52168 10.27999 16462 ft 379 kts 163°
2026-04-23 18:01 53.49614 10.29170 17180 ft 382 kts 163°
2026-04-23 18:01 53.47042 10.30349 17890 ft 385 kts 163°
2026-04-23 18:01 53.44437 10.31544 18595 ft 388 kts 163°
2026-04-23 18:01 53.41825 10.32737 19265 ft 391 kts 163°
2026-04-23 18:02 53.40078 10.33530 19711 ft 393 kts 163°
2026-04-23 18:02 53.36521 10.35132 20582 ft 398 kts 163°
2026-04-23 18:02 53.33832 10.36336 21192 ft 401 kts 163°
2026-04-23 18:02 53.31125 10.37545 21791 ft 405 kts 163°
2026-04-23 18:03 53.28385 10.38768 22401 ft 408 kts 163°
2026-04-23 18:03 53.25633 10.40000 22969 ft 411 kts 163°
2026-04-23 18:03 53.22862 10.41243 23528 ft 414 kts 163°
2026-04-23 18:03 53.20066 10.42496 24095 ft 417 kts 163°
2026-04-23 18:04 53.17290 10.43734 24613 ft 420 kts 163°
2026-04-23 18:04 53.14449 10.44997 25113 ft 424 kts 163°
2026-04-23 18:04 53.11582 10.46213 25617 ft 427 kts 165°
2026-04-23 18:04 53.08664 10.47255 26097 ft 431 kts 167°
2026-04-23 18:05 53.05706 10.48166 26572 ft 434 kts 168°
2026-04-23 18:05 53.02712 10.49016 27020 ft 437 kts 168°
2026-04-23 18:05 52.99702 10.49859 27456 ft 439 kts 168°
2026-04-23 18:05 52.96677 10.50727 27921 ft 442 kts 168°
2026-04-23 18:06 52.93640 10.51633 28334 ft 445 kts 167°
2026-04-23 18:06 52.90588 10.52573 28760 ft 448 kts 167°
2026-04-23 18:06 52.87517 10.53533 29182 ft 450 kts 167°
2026-04-23 18:06 52.84428 10.54502 29613 ft 453 kts 167°
2026-04-23 18:07 52.81323 10.55470 30026 ft 455 kts 167°
2026-04-23 18:07 52.78206 10.56436 30427 ft 457 kts 167°
2026-04-23 18:07 52.75066 10.57407 30811 ft 460 kts 167°
2026-04-23 18:07 52.71917 10.58377 31186 ft 462 kts 167°
2026-04-23 18:08 52.69822 10.59018 31432 ft 463 kts 167°
2026-04-23 18:08 52.65561 10.60317 31878 ft 467 kts 167°
2026-04-23 18:08 52.62362 10.61287 32236 ft 468 kts 167°
2026-04-23 18:08 52.60244 10.61928 32551 ft 467 kts 167°
2026-04-23 18:09 52.57054 10.62896 33033 ft 465 kts 167°
2026-04-23 18:09 52.53880 10.63863 33507 ft 464 kts 166°
2026-04-23 18:09 52.50707 10.64834 33979 ft 462 kts 166°
2026-04-23 18:09 52.47547 10.65801 34447 ft 461 kts 166°
2026-04-23 18:10 52.44389 10.66762 34914 ft 460 kts 166°
2026-04-23 18:10 52.41241 10.67716 35185 ft 460 kts 166°
2026-04-23 18:10 52.38096 10.68666 35246 ft 459 kts 167°
2026-04-23 18:11 52.31815 10.70564 35249 ft 459 kts 166°
2026-04-23 18:11 52.25533 10.72454 35246 ft 459 kts 166°
2026-04-23 18:12 52.19252 10.74321 35247 ft 459 kts 167°
2026-04-23 18:12 52.16109 10.75255 35441 ft 460 kts 166°
2026-04-23 18:12 52.12965 10.76195 35803 ft 459 kts 167°
2026-04-23 18:12 52.09824 10.77136 36183 ft 458 kts 167°
2026-04-23 18:13 52.06728 10.78061 36499 ft 459 kts 168°
2026-04-23 18:13 52.03579 10.78997 36796 ft 460 kts 168°
2026-04-23 18:13 52.00432 10.79931 37134 ft 459 kts 168°
2026-04-23 18:14 51.94188 10.81771 37240 ft 452 kts 167°
2026-04-23 18:14 51.91176 10.83055 37240 ft 444 kts 155°
2026-04-23 18:14 51.88348 10.85043 37229 ft 443 kts 153°
2026-04-23 18:15 51.82707 10.89082 37228 ft 443 kts 153°
2026-04-23 18:15 51.77062 10.93119 37227 ft 444 kts 153°
2026-04-23 18:16 51.71410 10.97147 37230 ft 444 kts 153°
2026-04-23 18:16 51.65754 11.01162 37223 ft 444 kts 153°
2026-04-23 18:17 51.57257 11.07175 37221 ft 444 kts 153°
2026-04-23 18:17 51.51594 11.11170 37222 ft 445 kts 153°
2026-04-23 18:18 51.45927 11.15155 37221 ft 445 kts 153°
2026-04-23 18:18 51.40285 11.19110 37219 ft 445 kts 153°
2026-04-23 18:19 51.34609 11.23079 37222 ft 445 kts 153°
2026-04-23 18:19 51.28930 11.27036 37223 ft 445 kts 153°
2026-04-23 18:20 51.23247 11.30992 37222 ft 445 kts 153°
2026-04-23 18:20 51.17570 11.34939 37225 ft 445 kts 153°
2026-04-23 18:21 51.11881 11.38887 37230 ft 445 kts 153°
2026-04-23 18:21 51.06190 11.42809 37232 ft 445 kts 153°
2026-04-23 18:22 51.00498 11.46721 37236 ft 445 kts 153°
2026-04-23 18:22 50.94817 11.50628 37237 ft 445 kts 152°
2026-04-23 18:23 50.86286 11.56478 37244 ft 445 kts 153°
2026-04-23 18:24 50.77755 11.62288 37241 ft 445 kts 152°
2026-04-23 18:25 50.69253 11.68041 37232 ft 444 kts 152°
2026-04-23 18:25 50.63575 11.71889 37235 ft 444 kts 152°
2026-04-23 18:26 50.57887 11.75727 37231 ft 444 kts 152°
2026-04-23 18:26 50.52207 11.79548 37225 ft 444 kts 152°
2026-04-23 18:27 50.46533 11.83366 37225 ft 443 kts 152°
2026-04-23 18:27 50.40853 11.87172 37225 ft 443 kts 152°
2026-04-23 18:28 50.35180 11.90962 37221 ft 443 kts 152°
2026-04-23 18:28 50.29540 11.94711 37221 ft 443 kts 152°
2026-04-23 18:29 50.23853 11.98487 37222 ft 443 kts 152°
2026-04-23 18:29 50.18178 12.02255 37218 ft 443 kts 152°
2026-04-23 18:30 50.12489 12.06015 37217 ft 443 kts 152°
2026-04-23 18:30 50.06807 12.09756 36867 ft 443 kts 152°
2026-04-23 18:30 50.03962 12.11624 36618 ft 443 kts 152°
2026-04-23 18:31 50.01125 12.13490 36368 ft 443 kts 152°
2026-04-23 18:31 49.98281 12.15355 36112 ft 444 kts 152°
2026-04-23 18:31 49.95430 12.17225 35579 ft 445 kts 152°
2026-04-23 18:31 49.92569 12.19102 35003 ft 446 kts 152°
2026-04-23 18:32 49.89707 12.20977 34485 ft 445 kts 151°
2026-04-23 18:32 49.86867 12.22829 34020 ft 442 kts 151°
2026-04-23 18:32 49.84044 12.24663 33571 ft 439 kts 151°
2026-04-23 18:32 49.81232 12.26490 33100 ft 436 kts 151°
2026-04-23 18:33 49.78451 12.28299 32631 ft 433 kts 151°
2026-04-23 18:33 49.75678 12.30105 32260 ft 430 kts 151°
2026-04-23 18:33 49.72958 12.32002 32161 ft 426 kts 145°
2026-04-23 18:34 49.68144 12.37148 32193 ft 420 kts 136°
2026-04-23 18:34 49.63491 12.42585 32193 ft 419 kts 136°
2026-04-23 18:35 49.58825 12.48001 32199 ft 419 kts 136°
2026-04-23 18:35 49.54159 12.53416 32197 ft 419 kts 136°
2026-04-23 18:36 49.49505 12.58816 32201 ft 419 kts 136°
2026-04-23 18:36 49.44851 12.64195 32200 ft 418 kts 136°
2026-04-23 18:36 49.42611 12.67018 31629 ft 417 kts 130°
2026-04-23 18:37 49.40471 12.70111 30710 ft 425 kts 130°
2026-04-23 18:37 49.38332 12.73248 30032 ft 425 kts 130°
2026-04-23 18:37 49.36255 12.76445 29439 ft 418 kts 124°
2026-04-23 18:37 49.34445 12.79845 29208 ft 406 kts 123°
2026-04-23 18:38 49.32674 12.83134 29192 ft 395 kts 123°
2026-04-23 18:38 49.29169 12.89561 29206 ft 391 kts 123°
2026-04-23 18:39 49.25671 12.95935 29202 ft 391 kts 124°
2026-04-23 18:39 49.23718 12.98799 28847 ft 402 kts 138°
2026-04-23 18:39 49.21124 13.00705 27958 ft 427 kts 160°
2026-04-23 18:39 49.18137 13.01114 27190 ft 438 kts 182°
2026-04-23 18:40 49.15173 12.99973 26406 ft 443 kts 201°
2026-04-23 18:40 49.12378 12.98002 25608 ft 441 kts 203°
2026-04-23 18:40 49.09609 12.96001 24932 ft 439 kts 204°
2026-04-23 18:40 49.06862 12.93992 24249 ft 435 kts 204°
2026-04-23 18:41 49.04148 12.91999 23562 ft 432 kts 204°
2026-04-23 18:41 49.01448 12.90021 22924 ft 428 kts 204°
2026-04-23 18:41 48.98769 12.88072 22301 ft 424 kts 204°
2026-04-23 18:41 48.96129 12.86156 21685 ft 418 kts 204°
2026-04-23 18:42 48.93544 12.84284 20985 ft 413 kts 205°
2026-04-23 18:42 48.90957 12.82418 20257 ft 409 kts 205°
2026-04-23 18:42 48.88394 12.80576 19561 ft 404 kts 205°
2026-04-23 18:42 48.85870 12.78772 18905 ft 399 kts 205°
2026-04-23 18:43 48.83368 12.76988 18247 ft 394 kts 205°
2026-04-23 18:43 48.80898 12.75227 17594 ft 390 kts 206°
2026-04-23 18:43 48.78453 12.73483 16990 ft 384 kts 206°
2026-04-23 18:43 48.76054 12.71773 16478 ft 377 kts 206°
2026-04-23 18:44 48.73694 12.70097 16049 ft 371 kts 205°
2026-04-23 18:44 48.71255 12.68895 15617 ft 367 kts 191°
2026-04-23 18:44 48.68732 12.68555 15191 ft 362 kts 177°
2026-04-23 18:44 48.66277 12.69004 14787 ft 357 kts 168°
2026-04-23 18:45 48.63866 12.69635 14370 ft 354 kts 168°
2026-04-23 18:45 48.61420 12.70275 13949 ft 350 kts 169°
2026-04-23 18:45 48.59028 12.70890 13543 ft 347 kts 170°
2026-04-23 18:45 48.56651 12.71436 13144 ft 344 kts 171°
2026-04-23 18:46 48.54296 12.71936 12886 ft 337 kts 172°
2026-04-23 18:46 48.51980 12.72409 12491 ft 335 kts 172°
2026-04-23 18:46 48.49676 12.72875 12069 ft 333 kts 172°
2026-04-23 18:46 48.47384 12.73344 11648 ft 332 kts 172°
2026-04-23 18:47 48.45100 12.73821 11286 ft 329 kts 172°
2026-04-23 18:47 48.42869 12.74293 10926 ft 321 kts 172°
2026-04-23 18:47 48.40663 12.74768 10441 ft 318 kts 173°
2026-04-23 18:47 48.38506 12.75419 10066 ft 313 kts 166°
2026-04-23 18:48 48.36403 12.76201 9939 ft 308 kts 167°
2026-04-23 18:48 48.34339 12.76951 9537 ft 308 kts 168°
2026-04-23 18:48 48.32237 12.77710 9324 ft 306 kts 168°
2026-04-23 18:48 48.30200 12.78446 9131 ft 304 kts 168°
2026-04-23 18:49 48.28115 12.79202 8936 ft 304 kts 168°
2026-04-23 18:49 48.26093 12.79937 8755 ft 302 kts 168°
2026-04-23 18:49 48.24055 12.80678 8558 ft 301 kts 168°
2026-04-23 18:49 48.22032 12.81409 8380 ft 300 kts 168°
2026-04-23 18:50 48.21334 12.81661 8312 ft 300 kts 168°
2026-04-23 18:50 48.18655 12.82628 8070 ft 298 kts 168°
2026-04-23 18:50 48.16613 12.83360 7875 ft 298 kts 169°
2026-04-23 18:50 48.14613 12.84084 7686 ft 291 kts 168°
2026-04-23 18:51 48.12693 12.84785 7499 ft 285 kts 168°
2026-04-23 18:51 48.10765 12.85486 7318 ft 278 kts 169°
2026-04-23 18:51 48.08898 12.86164 7136 ft 273 kts 169°
2026-04-23 18:51 48.07089 12.86818 6970 ft 267 kts 169°
2026-04-23 18:52 48.05305 12.87462 6798 ft 261 kts 169°
2026-04-23 18:52 48.03567 12.88099 6637 ft 254 kts 167°
2026-04-23 18:52 48.01964 12.89151 6473 ft 250 kts 149°
2026-04-23 18:52 48.00642 12.90784 6328 ft 243 kts 132°
2026-04-23 18:53 47.99682 12.92830 6170 ft 241 kts 116°
2026-04-23 18:53 47.99102 12.95165 6001 ft 238 kts 103°
2026-04-23 18:53 47.98565 12.97498 5835 ft 238 kts 115°
2026-04-23 18:53 47.97641 12.99543 5699 ft 238 kts 133°
2026-04-23 18:54 47.96394 13.01133 5601 ft 235 kts 149°
2026-04-23 18:54 47.94925 13.02172 5491 ft 232 kts 165°
2026-04-23 18:54 47.93361 13.02690 5390 ft 229 kts 172°
2026-04-23 18:54 47.91827 13.03156 5279 ft 219 kts 171°
2026-04-23 18:55 47.90349 13.03616 5186 ft 217 kts 172°
2026-04-23 18:55 47.88866 13.04073 5089 ft 218 kts 172°
2026-04-23 18:55 47.87384 13.04528 5003 ft 216 kts 172°
2026-04-23 18:55 47.85945 13.04971 4724 ft 210 kts 172°
2026-04-23 18:56 47.84547 13.05400 4384 ft 205 kts 172°
2026-04-23 18:56 47.83160 13.05825 4098 ft 195 kts 172°
2026-04-23 18:56 47.81886 13.06214 3848 ft 184 kts 172°
2026-04-23 18:56 47.80663 13.06591 3606 ft 173 kts 171°
2026-04-23 18:57 47.79557 13.06935 3396 ft 152 kts 172°
2026-04-23 18:57 47.78564 13.07238 3194 ft 141 kts 172°
2026-04-23 18:57 47.77624 13.07523 3012 ft 136 kts 173°
2026-04-23 18:57 47.76705 13.07628 2824 ft 130 kts 192°
2026-04-23 18:58 47.75888 13.07119 2660 ft 127 kts 217°
2026-04-23 18:58 47.75328 13.06126 2494 ft 126 kts 243°
2026-04-23 18:58 47.75136 13.04862 2334 ft 126 kts 269°
2026-04-23 18:58 47.75348 13.03606 2161 ft 127 kts 296°
2026-04-23 18:59 47.75926 13.02625 1974 ft 129 kts 321°
2026-04-23 18:59 47.76726 13.02042 1791 ft 129 kts 337°
2026-04-23 18:59 47.77548 13.01530 1624 ft 128 kts 334°
2026-04-23 18:59 47.78362 13.01007 1467 ft 127 kts 333°
2026-04-23 19:00 47.79034 13.00580 1422 ft 96 kts 336°